Preview of NWS' New Version of Forecast
This preview is not operational and should not be used for support decisions.

Regional Weather Roundup (RWR)

Issued by National Weather Service (NWS)

                            
000
ASUS43 KTOP 180908
RWRKS 

WEATHER ROUNDUP FOR KANSAS
NATIONAL WEATHER SERVICE GOODLAND KS
400 AM CDT TUE JUN 18 2019

NOTE:  "FAIR" INDICATES FEW OR NO CLOUDS BELOW 12,000 FEET WITH NO
SIGNIFICANT WEATHER AND/OR OBSTRUCTIONS TO VISIBILITY.

KSZ001>006-013>018-027>032-041>047-181000-
NORTHWEST KANSAS
  
CITY           SKY/WX    TMP DP  RH WIND       PRES   REMARKS
GOODLAND       CLOUDY    59  59 100 E7        30.02S                  
HAYS           MOCLDY    65  61  87 NW10      29.99S                  
HILL CITY      LGT RAIN  64  63  96 E7        29.99F FOG              
RUSSELL        LGT RAIN  66  61  84 W15G24    29.96R                  
$$

KSZ061>065-074>080-084>089-181000-
SOUTHWEST KANSAS
  
CITY           SKY/WX    TMP DP  RH WIND       PRES   REMARKS
DODGE CITY     LGT RAIN  63  61  93 E6        29.98S                  
ELKHART        DRIZZLE   63  63  98 CALM      30.01F                  
GARDEN CITY    LGT RAIN  61  61 100 S3        29.99R                  
GREAT BEND     LGT RAIN  67  62  84 W14       29.98F                  
LIBERAL        LGT RAIN  63  62  97 CALM      29.99R                  
PRATT          MOCLDY    67  65  94 NW7       29.97F                  
$$

KSZ066>073-081>083-090>101-181000-
SOUTHEAST KANSAS
  
CITY           SKY/WX    TMP DP  RH WIND       PRES   REMARKS
CHANUTE        CLEAR     66  64  93 N5        29.93S                  
COFFEYVILLE    CLEAR     67  66  97 CALM      29.90F                  
HUTCHINSON     CLOUDY    71  66  84 SW6       29.95R                  
MEDICINE LODGE   N/A     68  66  93 CALM      29.95S                  
NEWTON         CLEAR     67  65  93 S5        29.95F                  
PARSONS        CLEAR     64  64 100 CALM      29.93S                  
WICHITA INTL   MOCLDY    69  64  84 W6        29.94S                  
WICHITA JABRA  CLEAR     68  65  90 S6        29.93F                  
WICHITA MCCONL CLEAR     69  64  84 SE3       29.94S                  
WINFIELD       CLEAR     67  65  93 S3        29.94S                  
$$

KSZ007>012-019>026-033>040-048>060-102>105-181000-
NORTHEAST KANSAS
  
CITY           SKY/WX    TMP DP  RH WIND       PRES   REMARKS
CONCORDIA      CLEAR     69  62  78 NW3       29.94S                  
EMPORIA        CLEAR     65  65 100 SE5       29.94S                  
LAWRENCE       CLEAR     65  63  93 CALM      29.93F FOG              
MANHATTAN      CLEAR     64  62  93 CALM      29.93F                  
MARYSVILLE     CLEAR     64  61  88 S3        29.94S                  
OLATHE IND     FOG       62  61  96 CALM      29.94F VSB 1/2          
OLATHE EXE     CLEAR     64  64 100 NE3       29.93F                  
SALINA         MOCLDY    67  64  90 SE6       29.93F                  
TOPEKA BILLARD CLEAR     66  63  90 CALM      29.93R                  
TOPEKA FORBES  CLEAR     66  64  93 S3        29.93S                  
$$